Flag for Germany Weather past 2 weeks in Stralsund, Mecklenburg-Western Pomerania, Germany

Now
60 °F

Overcast.


Feels Like: 60 °F
Forecast: 58 / 65 °F
Wind: 1 mph from South

Location: Greifswald

Current Time: Aug 30, 2014 at 11:03:09 PM

Latest Report: Aug 30, 2014 at 10:00 PM


Visibility: 5 mi

Pressure: 29.97 "Hg

Humidity: 97%

Dew point: 58 °F

Location of StralsundLocation

Historic Weather in Stralsund — Graph

°F

Stralsund temperature yesterday

Maximum temperature yesterday: 70 °F (at 4:00 PM)
Minimum temperature yesterday: 51 °F (at 7:00 AM)
Average temperature yesterday: 60 °F

Past Weeks' High & Low Weather Summary

 TemperatureHumidityPressure
High71 °F (Aug 28, 4:00 PM)99% (Aug 27, 7:00 AM)30.05 "Hg (Aug 27, 7:00 AM)
Low44 °F (Aug 26, 6:00 AM)35% (Aug 28, 4:00 PM)29.47 "Hg (Aug 18, 3:00 PM)
Average58 °F76%29.86 "Hg
* Reported Aug 15 10:00 PM — Aug 30 10:00 PM, Stralsund, Weather by CustomWeather, © 2014

Note: Actual official high and low records may vary slightly from our data, if they occured in-between our weather recording intervals... More about our weather records

Advertising

Stralsund weather history for previous 24 hours

 ConditionsComfort  
Time TempWeatherWind HumidityBarometerVisibility
10:00 PM
Aug 30
60 °FOvercast.1 mph97%29.97 "Hg5 mi
9:00 PM60 °FOvercast.1 mph94%29.96 "Hg7 mi
7:00 PM62 °FLight rain. Overcast.3 mph89%29.96 "Hg6 mi
6:00 PM62 °FOvercast.3 mph89%29.97 "Hg16 mi
4:00 PM69 °FOvercast.3 mph65%29.96 "Hg16 mi
3:00 PM68 °FOvercast.3 mph65%29.97 "Hg17 mi
2:00 PM66 °FLight rain. Overcast.3 mph71%29.98 "Hg14 mi
1:00 PM68 °FOvercast.5 mph69%29.98 "Hg15 mi
12:00 PM66 °FOvercast.2 mph77%29.99 "Hg12 mi
10:00 AM63 °FOvercast.2 mph77%29.99 "Hg14 mi
9:00 AM60 °FOvercast.2 mph90%29.98 "Hg8 mi
8:00 AM58 °FFog.2 mph94%29.98 "Hg4 mi
7:00 AM55 °FFog.1 mph98%29.97 "Hg3 mi
6:00 AM56 °FFog.2 mph97%29.97 "Hg3 mi
4:00 AM58 °FOvercast.2 mph95%29.96 "Hg5 mi
3:00 AM56 °FFog.2 mph98%29.96 "Hg2 mi
2:00 AM58 °FFog.2 mph98%29.96 "Hg1 mi
1:00 AM58 °FFog.2 mph97%29.96 "Hg2 mi
12:00 AM60 °FOvercast.2 mph96%29.96 "Hg4 mi
Weather by CustomWeather, © 2014

See weather overviewHow to use our weather pages